[ hide orbit diagram ]
For accurate long-term ephemerides, please instead use our Horizons system.This orbit viewer was implemented using two-body methods, and hence should not be used for determining accurate long-term trajectories (over several years or decades) or planetary encounter circumstances.
Orbital Elements at Epoch 2459200.5 (2020-Dec-17.0) TDB
Reference: JPL 26 (heliocentric ecliptic J2000)
Element | Value | Uncertainty (1-sigma) | Units |
e | .1386299221738493 | 3.4836e-08 | |
a | 3.029400054253118 | 1.6836e-08 | au |
q | 2.609434560498553 | 1.0918e-07 | au |
i | 1.693671386536328 | 4.5581e-06 | deg |
node | 16.17458255780888 | 0.00013966 | deg |
peri | 74.29583939273907 | 0.00014091 | deg |
M | 1.351554788105136 | 1.7751e-05 | deg |
tp | 2459193.269563359159 (2020-Dec-09.76956336) | 9.4952e-05 | TDB |
period | 1925.898390217785 5.27 | 1.6055e-05 4.396e-08 | d yr |
n | .1869257494728424 | 1.5583e-09 | deg/d |
Q | 3.449365548007682 | 1.9171e-08 | au |
|
| | Orbit Determination Parameters
Additional Information
|
[ show covariance matrix ]
Physical Parameter Table
Parameter |
Symbol |
Value |
Units |
Sigma |
Reference |
Notes |
absolute magnitude |
H |
14.51 |
|
n/a |
E2021B10 |
|
diameter |
diameter |
7.165 |
km |
0.085 |
urn:nasa:pds:neowise_diameters_albedos::2.0[mainbelt] (http://adsabs.harvard.edu/abs/2011ApJ...741...68M) |
|
geometric albedo |
albedo |
0.055 |
|
0.010 |
urn:nasa:pds:neowise_diameters_albedos::2.0[mainbelt] (http://adsabs.harvard.edu/abs/2011ApJ...741...68M) |
|
|
71267 (2000 AL29) Discovered 2000-Jan-03 by LINEAR at Socorro |
Reference: 20031109/Numbers.arc | Last Updated: 2004-04-19 |
|
[ hide close-approach data ]
Close-Approach Data ...sorted by Date/Time (TDB)
|
Date/Time (TDB) |
Time Uncertainty (days_HH:MM) |
Body |
Nominal Distance (au) |
Minimum Distance (au) |
Maximum Distance (au) |
V-relative (km/s) |
V-infinity (km/s) |
JD (TDB) |
Time Uncertainty (minutes) |
Semi-major axis (km) |
Semi-minor axis (km) |
range-LOV angle (deg) |
N-sigma |
BP |
Orbit Ref. |
Reference |
Modified |
1903-Apr-24 23:04 |
00:03 |
Jupiter |
1.88517060093912 |
1.88516952598323 |
1.88517167589651 |
2.98705583382972 |
2.83264651054607 |
2416229.460918613 |
2.87884213735856 |
121.074913789063 |
17.0934529121558 |
78.2095024069959 |
2046260.28465767 |
T |
26 |
CATAB v2.0f-lin.ifort 2021-Feb-24 06:44:22 |
2021-Feb-24 06:44 |
1912-Jul-19 22:58 |
00:03 |
Jupiter |
1.89192218940393 |
1.89192126859405 |
1.89192311021349 |
2.20293294829753 |
1.98934765984045 |
2419603.457044230 |
2.65198315994617 |
57.7976013648673 |
12.3288183957179 |
78.9875065350832 |
1812981.85681066 |
T |
26 |
CATAB v2.0f-lin.ifort 2021-Feb-24 06:44:22 |
2021-Feb-24 06:44 |
1950-Oct-31 19:14 |
00:02 |
Jupiter |
1.88743729666179 |
1.88743653818315 |
1.88743805514065 |
3.01641288213141 |
2.86377540276921 |
2433586.301149724 |
1.68355137453962 |
78.0163769786213 |
17.2079810684145 |
79.2785069484671 |
2136194.51741649 |
T |
26 |
CATAB v2.0f-lin.ifort 2021-Feb-24 06:44:22 |
2021-Feb-24 06:44 |
1960-Jan-27 00:03 |
00:01 |
Jupiter |
1.88450357787824 |
1.88450301545677 |
1.88450414029951 |
2.18769089726618 |
1.97156209503897 |
2436960.502430498 |
1.4504222820983 |
52.7840861714989 |
7.73284948634995 |
83.7940433707586 |
2499930.50382179 |
T |
26 |
CATAB v2.0f-lin.ifort 2021-Feb-24 06:44:22 |
2021-Feb-24 06:44 |
1998-May-09 12:19 |
< 00:01 |
Jupiter |
1.89554132572599 |
1.89554080606057 |
1.89554184539131 |
3.05869590549461 |
2.90893808370032 |
2450943.013180581 |
0.486932352176975 |
41.3388282890802 |
16.2291440892367 |
87.80732293066 |
2461595.24884352 |
T |
26 |
CATAB v2.0f-lin.ifort 2021-Feb-24 06:44:22 |
2021-Feb-24 06:44 |
2007-Aug-04 05:58 |
< 00:01 |
Jupiter |
1.87921132195475 |
1.87921100083312 |
1.87921164307638 |
2.17996713615341 |
1.96234318056547 |
2454316.748312455 |
0.32164654150831 |
51.3542318850985 |
4.94848440387211 |
85.7072846444332 |
3482278.3030729 |
T |
26 |
CATAB v2.0f-lin.ifort 2021-Feb-24 06:44:22 |
2021-Feb-24 06:44 |
2045-Nov-15 01:42 |
< 00:01 |
Jupiter |
1.90224966669983 |
1.90224913645502 |
1.90225019694464 |
3.09779502081353 |
2.95055685983137 |
2468299.570658403 |
0.797867072680157 |
48.2672838253496 |
16.2207301453675 |
86.5816316991328 |
2401973.89010478 |
T |
26 |
CATAB v2.0f-lin.ifort 2021-Feb-24 06:44:22 |
2021-Feb-24 06:44 |
2055-Feb-09 17:28 |
00:01 |
Jupiter |
1.87379543254933 |
1.87379496595465 |
1.8737958991439 |
2.17088368019831 |
1.9515799910259 |
2471673.228042473 |
1.08129756441653 |
51.7764559970186 |
9.53305177576341 |
84.7479822014334 |
3007644.35763668 |
T |
26 |
CATAB v2.0f-lin.ifort 2021-Feb-24 06:44:22 |
2021-Feb-24 06:44 |
2093-May-23 21:51 |
00:02 |
Jupiter |
1.90438956648586 |
1.90438875462732 |
1.90439037834495 |
3.12750166242912 |
2.98189857645862 |
2485656.410190569 |
1.99873490955879 |
91.4402045533485 |
17.7806135173467 |
78.826121970621 |
2222214.59063099 |
T |
26 |
CATAB v2.0f-lin.ifort 2021-Feb-24 06:44:22 |
2021-Feb-24 06:44 |
2102-Aug-18 11:02 |
00:02 |
Jupiter |
1.86394257646038 |
1.86394178540445 |
1.863943367516 |
2.15114824692485 |
1.92836416161016 |
2489028.959935837 |
2.29253633804645 |
52.8274781356857 |
15.8664158844221 |
82.2368884792766 |
2096889.35026636 |
T |
26 |
CATAB v2.0f-lin.ifort 2021-Feb-24 06:44:22 |
2021-Feb-24 06:44 |
2140-Nov-29 09:33 |
00:03 |
Jupiter |
1.90570968354247 |
1.90570849186001 |
1.90571087522721 |
3.15006736144437 |
3.00566017006526 |
2503011.897865025 |
3.17842746839058 |
140.555765316793 |
18.3250020644981 |
76.6546962536291 |
2197345.95338298 |
T |
26 |
CATAB v2.0f-lin.ifort 2021-Feb-24 06:44:22 |
2021-Feb-24 06:44 |
2150-Feb-23 00:38 |
00:03 |
Jupiter |
1.85231061246651 |
1.85230945902372 |
1.85231176590867 |
2.12886145597933 |
1.90197091085593 |
2506384.526545385 |
3.48558229749383 |
53.5699278593767 |
22.211475716184 |
79.3020512266865 |
1526391.25800702 |
T |
26 |
CATAB v2.0f-lin.ifort 2021-Feb-24 06:44:22 |
2021-Feb-24 06:44 |
2188-Jun-05 04:22 |
00:04 |
Jupiter |
1.90847434333012 |
1.90847276234655 |
1.90847592431869 |
3.1756559740191 |
3.03267988220726 |
2520366.681929189 |
4.30907084955682 |
189.308788300347 |
18.6126232961645 |
75.7233737476284 |
2209747.80906175 |
T |
26 |
CATAB v2.0f-lin.ifort 2021-Feb-24 06:44:22 |
2021-Feb-24 06:44 |
2197-Aug-29 14:34 |
00:05 |
Jupiter |
1.84615168225015 |
1.84615017097527 |
1.84615319352387 |
2.12046572878492 |
1.89176269810695 |
2523739.107011180 |
4.62782324907864 |
53.6491116925596 |
28.9428650951548 |
75.7375014395331 |
1194934.09971803 |
T |
26 |
CATAB v2.0f-lin.ifort 2021-Feb-24 06:44:22 |
2021-Feb-24 06:44 |
|
Alternate Designations
2000 AL29 = 1995 BX5 = 1998 SW83 |
|
|